{"data":{"norad_id":69030,"intl_designator":"2026-101F","name":"STARLINK-37615","alt_names":[],"object_type":"PAYLOAD","status":"ACTIVE","operator":null,"country":"US","launch_date":"2026-05-06","launch_site_code":"AFWTR","launch_vehicle":null,"mission":null,"orbit_class":"UNKNOWN","rcs_meters":null,"size_class":null,"mass_kg":null,"dimensions":null,"purposes":["comms"],"wikipedia_slug":null,"has_3d_model":false,"image_url":null,"decayed_at":null,"tle_current":{"epoch":"2026-09-19T21:05:58.909056Z","epoch_age_seconds":72998,"freshness":"FRESH","line1":"1 69030U 26101F   26262.87915404  .00020793  00000+0  64435-3 0  9999","line2":"2 69030  97.2864 116.3727 0002693  87.8736 272.2815 15.33456680 21081","mean_motion":15.3345668,"eccentricity":0.0002693,"inclination_deg":97.2864,"raan_deg":116.3727,"arg_perigee_deg":87.8736,"mean_anomaly_deg":272.2815,"bstar":0.00064435,"rev_number":2108,"period_min":93.905489394066,"perigee_km":463.66542952381,"apogee_km":467.35141694877,"semimajor_km":6843.6454232363,"source":"CELESTRAK","updated_at":"2026-09-20T09:00:44.058913Z"}}}